KC8QDR-1 Weather Reports


time (UTC)temp
C
wind
direction
speed
KPH
gust
KPH
rain 1hr
cm
rain 24hr
cm
rain mn
cm
humidity
%
barometer
mb
20260506024844 10 335 3.2 4.8 0.25 1.19 1.19 96 1015.0
20260506023845 10 0 0.0 8.0 0.23 1.17 1.17 96 1014.9
20260506022847 10 16 4.8 9.7 0.25 1.14 1.14 96 1015.0
20260506021845 10 39 3.2 8.0 0.25 1.07 1.07 96 1014.8
20260506020844 10 11 9.7 8.0 0.23 1.02 1.02 96 1014.7
20260506015845 10 347 3.2 8.0 0.18 0.97 0.97 96 1014.9
20260506014844 10 351 1.6 6.4 0.18 0.94 0.94 96 1014.7
20260506013845 10 0 0.0 8.0 0.23 0.91 0.91 96 1014.6
20260506012845 10 4 3.2 8.0 0.25 0.89 0.89 96 1014.3
20260506011845 10 359 4.8 8.0 0.25 0.81 0.81 96 1014.3
20260506010844 10 18 8.0 11.3 0.28 0.79 0.79 96 1014.6
20260506005845 11 351 4.8 11.3 0.51 0.76 0.76 96 1014.9
20260506004844 11 0 6.4 17.7 0.69 0.76 0.76 96 1015.4
20260506004004 11 15 6.4 9.7 0.64 0.69 0.69 96 1015.8
20260506003845 11 15 6.4 9.7 0.64 0.69 0.69 96 1015.8
20260506002844 11 9 9.7 8.0 0.53 0.61 0.61 95 1016.0
20260506001845 11 351 6.4 8.0 0.46 0.53 0.53 95 1015.8
20260506000848 11 14 3.2 17.7 0.43 0.48 0.48 95 1016.0
20260506000027 12 1 14.5 27.4 0.18 0.25 0.25 95 1016.1
20260505235845 12 1 14.5 27.4 0.18 0.25 0.25 95 1016.1
20260505234845 12 359 4.8 27.4 0.03 0.08 0.08 92 1015.9
20260505233847 13 343 16.1 17.7 0.00 0.05 0.05 92 1015.7
20260505231845 14 352 9.7 9.7 0.00 0.05 0.05 92 1015.8
20260505230845 15 341 8.0 12.9 0.00 0.05 0.05 91 1015.8
20260505225845 15 319 3.2 11.3 0.00 0.05 0.05 90 1015.9
20260505224844 15 26 8.0 11.3 0.00 0.03 0.03 90 1016.2
20260505224001 15 2 4.8 9.7 0.00 0.03 0.03 89 1016.6
20260505223845 15 2 4.8 9.7 0.00 0.03 0.03 89 1016.6
20260505222844 15 350 3.2 11.3 0.00 0.03 0.03 89 1016.8
20260505221845 15 9 6.4 9.7 0.00 0.03 0.03 88 1016.9
20260505220844 15 0 0.0 16.1 0.00 0.03 0.03 88 1017.1
20260505215845 16 337 16.1 14.5 0.00 0.03 0.03 88 1017.3
20260505214844 16 348 8.0 11.3 0.00 0.03 0.03 87 1016.8
20260505213845 16 0 0.0 9.7 0.00 0.03 0.03 86 1016.7
20260505212844 16 355 6.4 11.3 0.00 0.03 0.03 84 1016.9
20260505211845 17 359 6.4 1.6 0.00 0.03 0.03 83 1017.1
20260505210845 17 276 1.6 6.4 0.00 0.03 0.03 79 1017.2
20260505210123 17 0 0.0 8.0 0.00 0.03 0.03 78 1017.1
20260505205845 17 0 0.0 8.0 0.00 0.03 0.03 78 1017.1
20260505204844 17 324 4.8 11.3 0.00 0.03 0.03 76 1016.7
20260505203845 18 18 3.2 8.0 0.00 0.03 0.03 74 1016.6
20260505202844 18 347 3.2 3.2 0.00 0.03 0.03 72 1016.6
20260505200849 18 247 0.0 9.7 0.00 0.03 0.03 69 1016.8
20260505195845 18 338 1.6 1.6 0.00 0.03 0.03 70 1016.7
20260505194844 18 279 1.6 6.4 0.00 0.03 0.03 70 1016.7
20260505193845 18 203 0.0 1.6 0.00 0.03 0.03 71 1016.8
20260505192844 18 0 0.0 1.6 0.00 0.03 0.03 72 1016.9
20260505191847 18 208 0.0 12.9 0.00 0.03 0.03 70 1017.1
20260505190844 19 217 4.8 11.3 0.00 0.03 0.03 65 1017.1
20260505185845 20 0 0.0 14.5 0.00 0.03 0.03 63 1016.9
20260505184844 20 182 3.2 11.3 0.00 0.03 0.03 62 1016.8
20260505183844 20 282 1.6 6.4 0.00 0.03 0.03 61 1016.7
20260505182844 20 204 3.2 14.5 0.00 0.03 0.03 60 1016.6
20260505181845 20 0 0.0 12.9 0.00 0.03 0.03 62 1016.4
20260505180844 20 214 6.4 17.7 0.00 0.03 0.03 62 1016.3
20260505175845 20 200 1.6 11.3 0.00 0.03 0.03 62 1016.1
20260505174844 20 213 9.7 12.9 0.00 0.03 0.03 63 1016.0
20260505173845 20 200 4.8 14.5 0.00 0.03 0.03 61 1016.0
20260505172845 20 196 4.8 20.9 0.00 0.03 0.03 61 1016.1
20260505171845 20 204 11.3 11.3 0.00 0.03 0.03 61 1016.1
20260505170844 20 278 8.0 11.3 0.00 0.03 0.03 58 1016.2
20260505165845 21 204 3.2 14.5 0.00 0.03 0.03 57 1016.2
20260505164844 21 266 11.3 16.1 0.00 0.03 0.03 55 1016.2
20260505163845 22 165 1.6 19.3 0.00 0.03 0.03 57 1016.2
20260505162845 22 247 6.4 24.1 0.00 0.03 0.03 55 1016.1
20260505161845 21 235 3.2 19.3 0.00 0.03 0.03 55 1016.0
20260505160844 21 187 4.8 24.1 0.00 0.03 0.03 56 1016.0
20260505152845 20 207 6.4 16.1 0.00 0.03 0.03 60 1016.4
20260505151845 20 203 8.0 20.9 0.00 0.03 0.03 62 1016.1
20260505150844 20 199 17.7 30.6 0.00 0.03 0.03 61 1016.2
20260505124844 16 215 4.8 14.5 0.03 0.03 0.03 78 1015.4
20260505123845 16 210 6.4 14.5 0.00 0.00 0.00 78 1014.9
20260505122844 16 182 11.3 17.7 0.00 0.00 0.00 77 1014.8
20260505121845 16 199 8.0 20.9 0.00 0.00 0.00 74 1014.7
20260505120844 17 194 11.3 22.5 0.00 0.00 0.00 70 1014.7
20260505115845 17 220 6.4 14.5 0.00 0.00 0.00 69 1014.5
20260505114844 17 196 6.4 16.1 0.00 0.00 0.00 67 1014.3
20260505113845 17 196 8.0 22.5 0.00 0.00 0.00 67 1014.3
20260505112844 17 162 4.8 16.1 0.00 0.00 0.00 67 1014.0
20260505111845 17 184 8.0 16.1 0.00 0.00 0.00 67 1013.8
20260505110844 17 224 4.8 17.7 0.00 0.00 0.00 67 1013.6
20260505101845 17 214 12.9 19.3 0.00 0.00 0.00 66 1013.1
20260505100844 17 196 9.7 24.1 0.00 0.00 0.00 66 1013.0
20260505095845 17 196 4.8 19.3 0.00 0.00 0.00 66 1012.9
20260505094846 17 160 4.8 14.5 0.00 0.00 0.00 67 1012.7
20260505093845 17 193 8.0 17.7 0.00 0.00 0.00 66 1012.8
20260505092846 17 200 9.7 14.5 0.00 0.00 0.00 66 1012.8
20260505091845 17 179 4.8 19.3 0.00 0.00 0.00 65 1012.8
20260505090844 18 187 11.3 22.5 0.00 0.00 0.00 64 1012.7
20260505085845 18 187 6.4 24.1 0.00 0.00 0.00 63 1012.7
20260505084844 18 197 11.3 19.3 0.00 0.00 0.00 64 1012.7
20260505083845 18 201 6.4 20.9 0.00 0.00 0.00 64 1012.8
20260505082845 18 242 8.0 14.5 0.00 0.00 0.00 64 1012.5
20260505081845 18 196 6.4 17.7 0.00 0.00 0.00 65 1012.4
20260505080844 18 200 8.0 19.3 0.00 0.00 0.00 66 1012.4
20260505075845 17 193 6.4 12.9 0.00 0.00 0.00 67 1012.3
20260505074844 17 200 4.8 16.1 0.00 0.00 0.00 67 1012.4
20260505073845 17 196 4.8 16.1 0.00 0.00 0.00 67 1012.2
20260505072844 17 213 6.4 19.3 0.00 0.00 0.00 67 1012.2
20260505071845 17 201 4.8 19.3 0.00 0.00 0.00 66 1012.2
20260505070844 17 194 6.4 16.1 0.00 0.00 0.00 67 1012.2
20260505065844 17 184 9.7 14.5 0.00 0.00 0.00 67 1012.3
20260505064844 17 176 8.0 14.5 0.00 0.00 0.00 67 1012.4
20260505063844 18 201 8.0 17.7 0.00 0.00 0.00 66 1012.4
20260505062844 17 183 8.0 16.1 0.00 0.00 0.00 66 1012.6
20260505061845 18 239 6.4 25.7 0.00 0.00 0.00 66 1012.7
20260505060844 17 179 8.0 16.1 0.00 0.00 0.00 66 1012.8
20260505055845 17 186 6.4 16.1 0.00 0.00 0.00 68 1013.0
20260505054844 17 183 14.5 12.9 0.00 0.00 0.00 67 1013.2
20260505053845 17 193 14.5 14.5 0.00 0.00 0.00 67 1013.3
20260505053038 17 179 9.7 14.5 0.00 0.00 0.00 68 1013.3
20260505052844 17 179 9.7 14.5 0.00 0.00 0.00 68 1013.3
20260505051845 17 223 8.0 12.9 0.00 0.00 0.00 69 1013.4
20260505050844 17 193 9.7 14.5 0.00 0.00 0.00 68 1013.5
20260505040844 17 194 14.5 16.1 0.00 0.00 0.00 66 1013.7
20260505035845 17 186 8.0 12.9 0.00 0.00 0.00 66 1013.8
20260505034844 17 184 9.7 12.9 0.00 0.00 0.00 65 1013.9
20260505033846 17 194 9.7 12.9 0.00 0.00 0.00 65 1013.8
20260505032844 17 196 8.0 16.1 0.00 0.00 0.00 65 1013.7
20260505031845 17 201 6.4 14.5 0.00 0.00 0.00 64 1013.6
20260505030844 18 200 6.4 17.7 0.00 0.00 0.00 64 1013.6
20260505025845 18 180 8.0 16.1 0.00 0.00 0.00 63 1013.6